"Period start","avg(HW err(1)/warn(2) (#))","avg(Visibility (m))","avg(Weather code (#))","avg(Precip intensity (mm/h))","min(HW err(1)/warn(2) (#))","max(HW err(1)/warn(2) (#))","std(HW err(1)/warn(2) (#))","med(HW err(1)/warn(2) (#))","min(Visibility (m))","max(Visibility (m))","std(Visibility (m))","med(Visibility (m))","min(Weather code (#))","max(Weather code (#))","std(Weather code (#))","med(Weather code (#))","min(Precip intensity (mm/h))","max(Precip intensity (mm/h))","std(Precip intensity (mm/h))","med(Precip intensity (mm/h))"
2016-05-01 00:00:00,2,5674,71,0.59,2,2,0,2,4120,8168,1179,5447,71,71,0,71,0.20,1.30,0.32,0.68
2016-05-01 00:10:00,2,8267,71,0.30,2,2,0,2,5674,11743,1735,7740,71,71,0,71,0.00,0.65,0.20,0.38
2016-05-01 00:20:00,2,8300,71,0.35,2,2,0,2,6087,10570,1653,8635,71,71,0,71,0.05,0.65,0.24,0.28
2016-05-01 00:30:00,2,8536,71,0.36,2,2,0,2,5278,13317,2633,8022,71,71,0,71,0.00,0.95,0.34,0.25
2016-05-01 00:40:00,2,13466,72,0.10,2,2,0,2,9072,17095,2252,13989,71,77,2,71,0.00,0.45,0.12,0.05
2016-05-01 00:50:00,2,15528,71,0.15,2,2,0,2,8126,29009,6360,13080,71,71,0,71,0.00,0.70,0.20,0.05
2016-05-01 01:00:00,2,25467,71,0.11,2,2,0,2,15668,38358,6701,24833,71,71,0,71,0.00,0.25,0.10,0.08
2016-05-01 01:10:00,2,22911,71,0.08,2,2,0,2,12322,37430,7298,21889,71,71,0,71,0.00,0.30,0.10,0.05
2016-05-01 01:20:00,2,36183,71,0.06,2,2,0,2,24422,50000,7402,37468,71,71,0,71,0.00,0.25,0.08,0.03
2016-05-01 01:30:00,2,31023,36,0.04,2,2,0,2,19367,46382,8567,26938,0,71,36,36,0.00,0.30,0.09,0.00
2016-05-01 01:40:00,2,25527,71,0.07,2,2,0,2,12739,36665,8206,27590,71,71,0,71,0.00,0.20,0.07,0.05
2016-05-01 01:50:00,2,37574,57,0.03,2,2,0,2,27269,49616,7104,37576,0,71,28,71,0.00,0.15,0.06,0.00
2016-05-01 02:00:00,2,28624,36,0.02,2,2,0,2,12416,41956,9986,31746,0,71,36,36,0.00,0.10,0.03,0.00
2016-05-01 02:10:00,2,32391,43,0.04,2,2,0,2,12156,50000,12101,36362,0,71,35,71,0.00,0.20,0.07,0.00
2016-05-01 02:20:00,2,29551,57,0.17,2,2,0,2,9822,50000,15058,27461,0,71,28,71,0.00,1.10,0.32,0.05
2016-05-01 02:30:00,2,44096,0,0.00,2,2,0,2,34520,50000,5341,44954,0,0,0,0,0.00,0.00,0.00,0.00
2016-05-01 02:40:00,2,44395,0,0.00,2,2,0,2,29345,50000,7136,47860,0,0,0,0,0.00,0.00,0.00,0.00
2016-05-01 02:50:00,2,39342,0,0.00,2,2,0,2,30546,50000,5647,39014,0,0,0,0,0.00,0.00,0.00,0.00
2016-05-01 03:00:00,2,36042,12,0.01,2,2,0,2,21728,44760,7682,38246,0,41,19,0,0.00,0.05,0.02,0.00
2016-05-01 03:10:00,2,25274,52,0.03,2,2,0,2,19139,36623,5040,24556,0,77,29,71,0.00,0.10,0.03,0.03
2016-05-01 03:20:00,2,19287,71,0.11,2,2,0,2,7086,34390,8423,18428,71,71,0,71,0.00,0.30,0.11,0.08
2016-05-01 03:30:00,2,6990,71,0.32,2,2,0,2,4730,8544,1171,7126,71,71,0,71,0.10,0.55,0.15,0.33
2016-05-01 03:40:00,2,5632,71,0.38,2,2,0,2,3380,8825,1615,5616,71,71,0,71,0.15,0.65,0.15,0.40
2016-05-01 03:50:00,2,6181,71,0.58,2,2,0,2,3581,7559,1322,6344,71,71,0,71,0.10,1.50,0.36,0.60
2016-05-01 04:00:00,2,3378,71,1.43,2,2,0,2,2489,4412,645,3374,71,71,0,71,0.55,2.30,0.48,1.48
2016-05-01 04:10:00,2,3086,71,1.14,2,2,0,2,2100,4501,960,2604,71,71,0,71,0.50,1.90,0.49,1.00
2016-05-01 04:20:00,2,4031,71,1.05,2,2,0,2,2383,5425,1022,4329,71,71,0,71,0.35,1.95,0.44,0.97
2016-05-01 04:30:00,2,2660,71,1.49,2,2,0,2,1736,6176,1244,2188,71,71,0,71,1.05,2.10,0.44,1.27
2016-05-01 04:40:00,2,1716,71,2.44,2,2,0,2,1192,2128,244,1742,71,71,0,71,1.60,4.25,0.74,2.40
2016-05-01 04:50:00,2,2792,71,1.71,2,2,0,2,1900,5475,1036,2285,71,71,0,71,0.40,3.40,0.90,1.55
2016-05-01 05:00:00,2,3392,71,0.98,2,2,0,2,2261,4354,641,3462,71,71,0,71,0.30,1.90,0.51,0.80
2016-05-01 05:10:00,2,3054,71,1.06,2,2,0,2,1986,4334,883,2980,71,71,0,71,0.50,1.85,0.50,0.78
2016-05-01 05:20:00,2,1828,71,1.56,2,2,0,2,1417,3782,666,1620,71,71,0,71,1.00,2.20,0.34,1.60
2016-05-01 05:30:00,2,1897,71,2.58,2,2,0,2,1538,2376,261,1820,71,71,0,71,1.10,5.35,1.25,2.27
2016-05-01 05:40:00,2,2880,71,1.69,2,2,0,2,2236,3945,541,2806,71,71,0,71,0.65,3.55,0.79,1.55
2016-05-01 05:50:00,2,3038,72,0.95,2,2,0,2,2420,3355,322,3178,71,74,1,71,0.25,2.30,0.57,0.80
2016-05-01 06:00:00,2,3889,73,0.57,2,2,0,2,3053,5789,905,3484,71,77,3,71,0.30,0.75,0.15,0.57
2016-05-01 06:10:00,2,6787,71,0.24,2,2,0,2,3917,14215,2934,5924,71,71,0,71,0.00,0.80,0.22,0.20
2016-05-01 06:20:00,2,3268,71,0.89,2,2,0,2,2637,4460,494,3222,71,71,0,71,0.50,1.40,0.31,0.88
2016-05-01 06:30:00,2,5321,71,0.20,2,2,0,2,3426,9502,1720,4714,71,71,0,71,0.05,0.65,0.17,0.15
2016-05-01 06:40:00,2,16044,60,0.00,2,2,0,2,10561,26033,5512,13356,0,77,30,74,0.00,0.00,0.00,0.00
2016-05-01 06:50:00,2,18160,21,0.00,2,2,0,2,12107,23757,3008,17929,0,71,33,0,0.00,0.00,0.00,0.00
2016-05-01 07:00:00,2,15927,44,0.01,2,2,0,2,8335,29040,6717,14242,0,77,36,71,0.00,0.05,0.02,0.00
2016-05-01 07:10:00,2,27915,60,0.01,2,2,0,2,10410,38699,9926,30822,0,77,30,77,0.00,0.05,0.02,0.00
2016-05-01 07:20:00,2,25395,0,0.00,2,2,0,2,15648,37725,6757,26292,0,0,0,0,0.00,0.00,0.00,0.00
2016-05-01 07:30:00,2,17651,0,0.00,2,2,0,2,14261,22431,2592,16801,0,0,0,0,0.00,0.00,0.00,0.00
2016-05-01 07:40:00,2,13791,0,0.00,2,2,0,2,9947,22615,3738,12996,0,0,0,0,0.00,0.00,0.00,0.00
2016-05-01 07:50:00,2,15013,0,0.00,2,2,0,2,11711,21193,2968,14009,0,0,0,0,0.00,0.00,0.00,0.00
2016-05-01 08:00:00,2,18517,0,0.00,2,2,0,2,11671,29286,4694,17294,0,0,0,0,0.00,0.00,0.00,0.00
2016-05-01 08:10:00,2,23897,0,0.00,2,2,0,2,18129,30808,4358,22803,0,0,0,0,0.00,0.00,0.00,0.00
2016-05-01 08:20:00,2,33791,0,0.00,2,2,0,2,19377,47834,8431,33450,0,0,0,0,0.00,0.00,0.00,0.00
2016-05-01 08:30:00,2,17818,22,0.15,2,2,0,2,4347,38448,9016,16451,0,61,23,20,0.00,0.80,0.25,0.00
2016-05-01 08:40:00,2,6969,70,0.53,2,2,0,2,5018,11057,2029,6216,61,71,3,71,0.20,1.35,0.43,0.30
2016-05-01 08:50:00,2,7722,71,0.23,2,2,0,2,3071,11387,2187,7857,71,71,0,71,0.10,0.50,0.13,0.20
2016-05-01 09:00:00,2,9696,71,0.21,2,2,0,2,3818,17721,3933,8823,71,71,0,71,0.05,0.40,0.13,0.17
2016-05-01 09:10:00,2,10235,71,0.18,2,2,0,2,7317,13568,1666,9708,71,71,0,71,0.05,0.40,0.11,0.17
2016-05-01 09:20:00,2,9207,71,0.20,2,2,0,2,4166,15194,3256,8880,71,71,0,71,0.05,0.35,0.10,0.17
2016-05-01 09:30:00,2,9811,71,0.28,2,2,0,2,2678,19825,4849,8910,71,71,0,71,0.00,0.90,0.26,0.25
2016-05-01 09:40:00,2,22083,71,0.06,2,2,0,2,9124,34567,8039,21774,71,71,0,71,0.00,0.40,0.12,0.00
2016-05-01 09:50:00,2,29417,75,0.04,2,2,0,2,17683,37287,5534,28918,71,77,3,77,0.00,0.15,0.04,0.05
2016-05-01 10:00:00,2,19911,72,0.17,2,2,0,2,7416,35239,9374,19291,71,77,2,71,0.00,0.60,0.21,0.10
2016-05-01 10:10:00,2,19487,72,0.06,2,2,0,2,10645,32479,6101,18008,71,77,2,71,0.00,0.15,0.06,0.03
2016-05-01 10:20:00,2,21355,76,0.05,2,2,0,2,10883,29051,6158,21080,71,77,2,77,0.00,0.35,0.10,0.00
2016-05-01 10:30:00,2,37228,75,0.00,2,2,0,2,23936,44886,5786,37728,71,77,3,77,0.00,0.00,0.00,0.00
2016-05-01 10:40:00,2,29931,76,0.10,2,2,0,2,13386,46355,11543,34542,71,78,3,77,0.00,0.25,0.10,0.05
2016-05-01 10:50:00,2,29291,72,0.03,2,2,0,2,18692,39356,5937,30336,71,77,2,71,0.00,0.10,0.04,0.00
2016-05-01 11:00:00,2,43776,54,0.01,2,2,0,2,30814,50000,5701,42616,0,77,35,77,0.00,0.05,0.02,0.00
2016-05-01 11:10:00,2,27122,67,0.02,2,2,0,2,18673,35877,5627,27070,0,77,22,74,0.00,0.05,0.02,0.00
2016-05-01 11:20:00,2,29645,71,0.03,2,2,0,2,20601,36040,4672,30218,71,71,0,71,0.00,0.10,0.03,0.00
2016-05-01 11:30:00,2,37335,77,0.01,2,2,0,2,31475,43879,4017,36880,77,77,0,77,0.00,0.05,0.02,0.00
2016-05-01 11:40:00,2,42888,77,0.01,2,2,0,2,35041,50000,4861,43352,77,77,0,77,0.00,0.10,0.03,0.00
2016-05-01 11:50:00,2,46811,23,0.00,2,2,0,2,37950,50000,3642,47648,0,77,35,0,0.00,0.00,0.00,0.00
2016-05-01 12:00:00,2,49198,0,0.00,2,2,0,2,45981,50000,1342,50000,0,0,0,0,0.00,0.00,0.00,0.00
2016-05-01 12:10:00,2,47929,0,0.00,2,2,0,2,40018,50000,3509,50000,0,0,0,0,0.00,0.00,0.00,0.00
2016-05-01 12:20:00,2,47819,0,0.00,2,2,0,2,42874,50000,2256,48417,0,0,0,0,0.00,0.00,0.00,0.00
2016-05-01 12:30:00,2,48955,0,0.00,2,2,0,2,45798,50000,1592,50000,0,0,0,0,0.00,0.00,0.00,0.00
2016-05-01 12:40:00,2,49305,0,0.00,2,2,0,2,46352,50000,1062,49664,0,0,0,0,0.00,0.00,0.00,0.00
2016-05-01 12:50:00,2,49663,0,0.00,2,2,0,2,47979,50000,622,50000,0,0,0,0,0.00,0.00,0.00,0.00
2016-05-01 13:00:00,2,48715,0,0.00,2,2,0,2,44278,50000,2107,50000,0,0,0,0,0.00,0.00,0.00,0.00
2016-05-01 13:10:00,2,47340,0,0.00,2,2,0,2,40679,50000,3565,49557,0,0,0,0,0.00,0.00,0.00,0.00
2016-05-01 13:20:00,2,48180,0,0.00,2,2,0,2,39129,50000,3361,50000,0,0,0,0,0.00,0.00,0.00,0.00
2016-05-01 13:30:00,2,49547,0,0.00,2,2,0,2,46294,50000,1110,50000,0,0,0,0,0.00,0.00,0.00,0.00
2016-05-01 13:40:00,2,49287,0,0.00,2,2,0,2,43545,50000,1925,50000,0,0,0,0,0.00,0.00,0.00,0.00
2016-05-01 13:50:00,2,50000,0,0.00,2,2,0,2,50000,50000,0,50000,0,0,0,0,0.00,0.00,0.00,0.00
2016-05-01 14:00:00,2,43932,0,0.00,2,2,0,2,20598,50000,9224,48622,0,0,0,0,0.00,0.00,0.00,0.00
2016-05-01 14:10:00,2,19353,64,0.24,2,2,0,2,8096,37758,9916,15017,0,71,21,71,0.00,0.70,0.22,0.17
2016-05-01 14:20:00,2,12336,71,0.15,2,2,0,2,9972,15483,1279,12240,71,71,0,71,0.05,0.30,0.08,0.15
2016-05-01 14:30:00,2,13752,72,0.11,2,2,0,2,10568,16311,1773,14126,71,77,2,71,0.05,0.40,0.11,0.05
2016-05-01 14:40:00,2,24858,75,0.03,2,2,0,2,14537,39455,7005,24469,71,77,3,77,0.00,0.15,0.05,0.00
2016-05-01 14:50:00,2,42016,78,0.00,2,2,0,2,35880,47331,3899,43842,77,78,0,78,0.00,0.00,0.00,0.00
2016-05-01 15:00:00,2,18897,76,0.04,2,2,0,2,11518,39963,8085,16370,71,78,3,78,0.00,0.20,0.06,0.00
2016-05-01 15:10:00,2,19578,72,0.04,2,2,0,2,13331,24351,3799,20976,71,77,2,71,0.00,0.20,0.07,0.00
2016-05-01 15:20:00,2,22738,77,0.01,2,2,0,2,18677,27040,2454,23296,77,77,0,77,0.00,0.05,0.02,0.00
2016-05-01 15:30:00,2,12996,75,0.10,2,2,0,2,5147,17350,3448,13966,71,77,3,77,0.00,0.35,0.12,0.05
2016-05-01 15:40:00,2,4999,71,0.64,2,2,0,2,3894,6144,670,4978,71,71,0,71,0.15,1.05,0.24,0.68
2016-05-01 15:50:00,2,5698,71,0.56,2,2,0,2,3864,9605,1893,5073,71,71,0,71,0.10,1.80,0.47,0.50
2016-05-01 16:00:00,2,5966,71,0.31,2,2,0,2,3280,10936,2334,5272,71,71,0,71,0.05,0.80,0.23,0.23
2016-05-01 16:10:00,2,5709,71,0.33,2,2,0,2,3236,7748,1514,5840,71,71,0,71,0.10,0.70,0.21,0.28
2016-05-01 16:20:00,2,7677,71,0.20,2,2,0,2,6690,8438,554,7749,71,71,0,71,0.10,0.35,0.09,0.15
2016-05-01 16:30:00,2,7096,71,0.17,2,2,0,2,5555,8804,1167,6855,71,71,0,71,0.05,0.45,0.14,0.12
2016-05-01 16:40:00,2,3860,71,0.59,2,2,0,2,2677,6109,1089,3498,71,71,0,71,0.15,0.95,0.25,0.60
2016-05-01 16:50:00,2,3092,71,0.80,2,2,0,2,2581,4699,619,2846,71,71,0,71,0.35,1.20,0.29,0.88
2016-05-01 17:00:00,2,2408,71,1.04,2,2,0,2,2012,3361,388,2252,71,71,0,71,0.55,1.40,0.23,1.05
2016-05-01 17:10:00,2,3109,71,0.85,2,2,0,2,2426,4088,453,3044,71,71,0,71,0.45,1.75,0.40,0.73
2016-05-01 17:20:00,2,4087,71,0.56,2,2,0,2,2448,5818,1050,4327,71,71,0,71,0.20,1.00,0.28,0.48
2016-05-01 17:30:00,2,3086,71,0.91,2,2,0,2,2302,4185,572,3088,71,71,0,71,0.45,1.60,0.32,0.85
2016-05-01 17:40:00,2,2178,71,1.29,2,2,0,2,1645,2935,392,2182,71,71,0,71,0.60,2.50,0.51,1.18
2016-05-01 17:50:00,2,1844,71,1.26,2,2,0,2,1517,2306,236,1854,71,71,0,71,0.80,1.70,0.28,1.28
2016-05-01 18:00:00,2,2333,71,1.02,2,2,0,2,1767,3558,555,2127,71,71,0,71,0.60,1.50,0.30,1.02
2016-05-01 18:10:00,2,3720,71,0.59,2,2,0,2,2510,5321,764,3612,71,71,0,71,0.45,1.00,0.16,0.55
2016-05-01 18:20:00,2,3329,71,0.85,2,2,0,2,1942,4696,822,3356,71,71,0,71,0.30,1.60,0.41,0.80
2016-05-01 18:30:00,2,2859,71,0.96,2,2,0,2,2051,4060,598,2683,71,71,0,71,0.30,2.10,0.50,0.80
2016-05-01 18:40:00,2,3165,71,0.52,2,2,0,2,2316,4107,478,3094,71,71,0,71,0.20,0.95,0.21,0.47
2016-05-01 18:50:00,2,4278,71,0.40,2,2,0,2,3105,5736,855,4134,71,71,0,71,0.15,0.65,0.15,0.42
2016-05-01 19:00:00,2,5380,71,0.32,2,2,0,2,4190,6157,572,5320,71,71,0,71,0.15,0.65,0.13,0.33
2016-05-01 19:10:00,2,4976,71,0.49,2,2,0,2,4202,6101,562,5002,71,71,0,71,0.20,0.75,0.16,0.50
2016-05-01 19:20:00,2,6451,71,0.53,2,2,0,2,4917,8554,1054,6684,71,71,0,71,0.15,0.95,0.23,0.57
2016-05-01 19:30:00,2,6898,71,0.51,2,2,0,2,4040,9810,1750,6862,71,71,0,71,0.10,0.95,0.34,0.50
2016-05-01 19:40:00,2,5217,71,0.69,2,2,0,2,3130,8200,1626,5053,71,71,0,71,0.25,1.20,0.31,0.68
2016-05-01 19:50:00,2,3013,71,1.30,2,2,0,2,2157,4166,655,3016,71,71,0,71,0.50,2.35,0.58,1.23
2016-05-01 20:00:00,2,2584,71,1.05,2,2,0,2,1879,3464,476,2444,71,71,0,71,0.35,1.50,0.34,1.12
2016-05-01 20:10:00,2,1724,71,1.80,2,2,0,2,1507,2044,171,1694,71,71,0,71,1.15,2.60,0.51,1.65
2016-05-01 20:20:00,2,1844,71,1.89,2,2,0,2,1350,2334,264,1834,71,71,0,71,1.00,2.40,0.44,1.93
2016-05-01 20:30:00,2,2414,71,1.21,2,2,0,2,2033,2683,186,2432,71,71,0,71,0.70,1.40,0.20,1.25
2016-05-01 20:40:00,2,2890,71,0.57,2,2,0,2,2112,3945,703,2636,71,71,0,71,0.10,1.25,0.39,0.42
2016-05-01 20:50:00,2,3395,72,0.23,2,2,0,2,2424,5246,919,3063,71,77,2,71,0.05,0.45,0.12,0.20
2016-05-01 21:00:00,2,1712,72,0.74,2,2,0,2,1321,2576,366,1596,71,77,2,71,0.35,1.00,0.20,0.78
2016-05-01 21:10:00,2,1803,71,0.67,2,2,0,2,1436,2349,302,1700,71,71,0,71,0.50,0.95,0.15,0.60
2016-05-01 21:20:00,2,1844,71,1.26,2,2,0,2,1376,2268,294,1929,71,71,0,71,0.60,2.05,0.40,1.25
2016-05-01 21:30:00,2,1599,71,1.21,2,2,0,2,1465,1724,90,1604,71,71,0,71,0.85,1.65,0.26,1.18
2016-05-01 21:40:00,2,1465,71,1.30,2,2,0,2,1316,1619,100,1494,71,71,0,71,0.85,1.60,0.21,1.33
2016-05-01 21:50:00,2,1588,71,1.55,2,2,0,2,1369,1826,144,1569,71,71,0,71,1.00,1.85,0.29,1.70
2016-05-01 22:00:00,2,2009,71,1.12,2,2,0,2,1776,2263,159,2074,71,71,0,71,0.70,1.55,0.25,1.18
2016-05-01 22:10:00,2,2289,71,0.91,2,2,0,2,1601,2956,382,2314,71,71,0,71,0.40,2.00,0.52,0.75
2016-05-01 22:20:00,2,3663,71,0.39,2,2,0,2,2564,4751,610,3654,71,71,0,71,0.10,0.70,0.18,0.33
2016-05-01 22:30:00,2,5290,71,0.10,2,2,0,2,4339,6662,736,5088,71,71,0,71,0.05,0.25,0.06,0.08
2016-05-01 22:40:00,2,7860,76,0.02,2,2,0,2,6528,11943,1628,7266,71,77,2,77,0.00,0.10,0.03,0.00
2016-05-01 22:50:00,2,18220,22,0.00,2,2,0,2,12467,23510,3207,18234,0,77,30,10,0.00,0.00,0.00,0.00
2016-05-01 23:00:00,2,20954,0,0.00,2,2,0,2,13655,27135,3959,22024,0,0,0,0,0.00,0.00,0.00,0.00
2016-05-01 23:10:00,2,12636,0,0.00,2,2,0,2,8358,21867,4428,10872,0,0,0,0,0.00,0.00,0.00,0.00
2016-05-01 23:20:00,2,11129,6,0.00,2,2,0,2,7495,16103,3194,10237,0,10,5,10,0.00,0.00,0.00,0.00
2016-05-01 23:30:00,2,20509,0,0.00,2,2,0,2,11575,32163,6302,19462,0,0,0,0,0.00,0.00,0.00,0.00
2016-05-01 23:40:00,2,24896,0,0.00,2,2,0,2,18952,35851,4866,23403,0,0,0,0,0.00,0.00,0.00,0.00
2016-05-01 23:50:00,2,17117,0,0.00,2,2,0,2,4505,35939,10259,18486,0,0,0,0,0.00,0.00,0.00,0.00
